Time,TemperatureF,DewpointF,PressureIn,WindDirection,WindDirectionDegrees,WindSpeedMPH,WindSpeedGustMPH,Humidity,HourlyPrecipIn,Conditions,Clouds,dailyrainin,SolarRadiationWatts/m^2,SoftwareType,DateUTC
2013-05-13 00:01:00,74.0,39.0,-100.00,WSW,258,8.0,15.0,28,0.00,,,0.00,0.000000,,2013-05-13 06:01:00,
2013-05-13 00:11:00,74.0,39.0,-100.00,WSW,258,8.0,15.0,28,0.00,,,0.00,0.000000,,2013-05-13 06:11:00,
2013-05-13 00:21:00,74.0,39.0,-100.00,WSW,258,8.0,15.0,28,0.00,,,0.00,0.000000,,2013-05-13 06:21:00,
2013-05-13 00:30:00,70.0,38.0,-100.00,WSW,253,5.0,13.0,31,0.00,,,0.00,0.000000,,2013-05-13 06:30:00,
2013-05-13 00:52:00,70.0,38.0,-100.00,WSW,253,5.0,13.0,31,0.00,,,0.00,0.000000,,2013-05-13 06:52:00,
2013-05-13 01:01:00,70.0,38.0,-100.00,WSW,253,5.0,13.0,31,0.00,,,0.00,0.000000,,2013-05-13 07:01:00,
2013-05-13 01:11:00,70.0,38.0,-100.00,WSW,253,5.0,13.0,31,0.00,,,0.00,0.000000,,2013-05-13 07:11:00,
2013-05-13 01:21:00,70.0,38.0,-100.00,WSW,253,5.0,13.0,31,0.00,,,0.00,0.000000,,2013-05-13 07:21:00,
2013-05-13 01:30:00,71.0,40.0,-100.00,West,264,7.0,12.0,33,0.00,,,0.00,0.000000,,2013-05-13 07:30:00,
2013-05-13 01:52:00,71.0,40.0,-100.00,West,264,7.0,12.0,33,0.00,,,0.00,0.000000,,2013-05-13 07:52:00,
2013-05-13 02:02:00,71.0,40.0,-100.00,West,264,7.0,12.0,33,0.00,,,0.00,0.000000,,2013-05-13 08:02:00,
2013-05-13 02:11:00,71.0,40.0,-100.00,West,264,7.0,12.0,33,0.00,,,0.00,0.000000,,2013-05-13 08:11:00,
2013-05-13 02:21:00,71.0,40.0,-100.00,West,264,7.0,12.0,33,0.00,,,0.00,0.000000,,2013-05-13 08:21:00,
2013-05-13 02:30:00,64.0,37.0,-100.00,NW,318,5.0,8.0,37,0.00,,,0.00,0.000000,,2013-05-13 08:30:00,
2013-05-13 02:52:00,64.0,37.0,-100.00,NW,318,5.0,8.0,37,0.00,,,0.00,0.000000,,2013-05-13 08:52:00,
2013-05-13 03:01:00,64.0,37.0,-100.00,NW,318,5.0,8.0,37,0.00,,,0.00,0.000000,,2013-05-13 09:01:00,
2013-05-13 03:11:00,64.0,37.0,-100.00,NW,318,5.0,8.0,37,0.00,,,0.00,0.000000,,2013-05-13 09:11:00,
2013-05-13 03:21:00,64.0,37.0,-100.00,NW,318,5.0,8.0,37,0.00,,,0.00,0.000000,,2013-05-13 09:21:00,
2013-05-13 03:30:00,61.0,41.0,-100.00,West,279,6.0,9.0,48,0.00,,,0.00,0.000000,,2013-05-13 09:30:00,
2013-05-13 03:52:00,61.0,41.0,-100.00,West,279,6.0,9.0,48,0.00,,,0.00,0.000000,,2013-05-13 09:52:00,
2013-05-13 04:02:00,61.0,41.0,-100.00,West,279,6.0,9.0,48,0.00,,,0.00,0.000000,,2013-05-13 10:02:00,
2013-05-13 04:12:00,61.0,41.0,-100.00,West,279,6.0,9.0,48,0.00,,,0.00,0.000000,,2013-05-13 10:12:00,
2013-05-13 04:22:00,61.0,41.0,-100.00,West,279,6.0,9.0,48,0.00,,,0.00,0.000000,,2013-05-13 10:22:00,
2013-05-13 04:30:00,60.0,41.0,-100.00,West,267,5.0,10.0,50,0.00,,,0.00,0.000000,,2013-05-13 10:30:00,
2013-05-13 04:52:00,60.0,41.0,-100.00,West,267,5.0,10.0,50,0.00,,,0.00,0.000000,,2013-05-13 10:52:00,
2013-05-13 05:02:00,60.0,41.0,-100.00,West,267,5.0,10.0,50,0.00,,,0.00,0.000000,,2013-05-13 11:02:00,
2013-05-13 05:12:00,60.0,41.0,-100.00,West,267,5.0,10.0,50,0.00,,,0.00,0.000000,,2013-05-13 11:12:00,
2013-05-13 05:21:00,60.0,41.0,-100.00,West,267,5.0,10.0,50,0.00,,,0.00,0.000000,,2013-05-13 11:21:00,
2013-05-13 05:30:00,59.0,41.0,-100.00,West,268,6.0,9.0,52,0.00,,,0.00,0.000000,,2013-05-13 11:30:00,
2013-05-13 05:52:00,59.0,41.0,-100.00,West,268,6.0,9.0,52,0.00,,,0.00,0.000000,,2013-05-13 11:52:00,
2013-05-13 06:01:00,59.0,41.0,-100.00,West,268,6.0,9.0,52,0.00,,,0.00,0.000000,,2013-05-13 12:01:00,
2013-05-13 06:11:00,59.0,41.0,-100.00,West,268,6.0,9.0,52,0.00,,,0.00,0.000000,,2013-05-13 12:11:00,
2013-05-13 06:21:00,59.0,41.0,-100.00,West,268,6.0,9.0,52,0.00,,,0.00,0.000000,,2013-05-13 12:21:00,
2013-05-13 06:30:00,60.0,43.0,-100.00,WNW,292,6.0,9.0,54,0.00,,,0.00,6.000000,,2013-05-13 12:30:00,
2013-05-13 06:52:00,60.0,43.0,-100.00,WNW,292,6.0,9.0,54,0.00,,,0.00,6.000000,,2013-05-13 12:52:00,
2013-05-13 07:01:00,60.0,43.0,-100.00,WNW,292,6.0,9.0,54,0.00,,,0.00,6.000000,,2013-05-13 13:01:00,
2013-05-13 07:11:00,60.0,43.0,-100.00,WNW,292,6.0,9.0,54,0.00,,,0.00,6.000000,,2013-05-13 13:11:00,
2013-05-13 07:21:00,60.0,43.0,-100.00,WNW,292,6.0,9.0,54,0.00,,,0.00,6.000000,,2013-05-13 13:21:00,
2013-05-13 07:30:00,62.0,46.0,-100.00,WNW,284,5.0,8.0,55,0.00,,,0.00,77.000000,,2013-05-13 13:30:00,
2013-05-13 07:52:00,62.0,46.0,-100.00,WNW,284,5.0,8.0,55,0.00,,,0.00,77.000000,,2013-05-13 13:52:00,
2013-05-13 08:01:00,62.0,46.0,-100.00,WNW,284,5.0,8.0,55,0.00,,,0.00,77.000000,,2013-05-13 14:01:00,
2013-05-13 08:11:00,62.0,46.0,-100.00,WNW,284,5.0,8.0,55,0.00,,,0.00,77.000000,,2013-05-13 14:11:00,
2013-05-13 08:22:00,62.0,46.0,-100.00,WNW,284,5.0,8.0,55,0.00,,,0.00,77.000000,,2013-05-13 14:22:00,
2013-05-13 08:30:00,69.0,48.0,-100.00,West,264,7.0,11.0,47,0.00,,,0.00,243.000000,,2013-05-13 14:30:00,
2013-05-13 08:52:00,69.0,48.0,-100.00,West,264,7.0,11.0,47,0.00,,,0.00,243.000000,,2013-05-13 14:52:00,
2013-05-13 09:01:00,69.0,48.0,-100.00,West,264,7.0,11.0,47,0.00,,,0.00,243.000000,,2013-05-13 15:01:00,
2013-05-13 09:11:00,69.0,48.0,-100.00,West,264,7.0,11.0,47,0.00,,,0.00,243.000000,,2013-05-13 15:11:00,
2013-05-13 09:21:00,69.0,48.0,-100.00,West,264,7.0,11.0,47,0.00,,,0.00,243.000000,,2013-05-13 15:21:00,
2013-05-13 09:30:00,73.0,47.0,-100.00,WSW,248,14.0,19.0,40,0.00,,,0.00,485.000000,,2013-05-13 15:30:00,
2013-05-13 09:53:00,73.0,47.0,-100.00,WSW,248,14.0,19.0,40,0.00,,,0.00,485.000000,,2013-05-13 15:53:00,
2013-05-13 10:03:00,73.0,47.0,-100.00,WSW,248,14.0,19.0,40,0.00,,,0.00,485.000000,,2013-05-13 16:03:00,
2013-05-13 10:11:00,73.0,47.0,-100.00,WSW,248,14.0,19.0,40,0.00,,,0.00,485.000000,,2013-05-13 16:11:00,
2013-05-13 10:21:00,73.0,47.0,-100.00,WSW,248,14.0,19.0,40,0.00,,,0.00,485.000000,,2013-05-13 16:21:00,
2013-05-13 10:30:00,77.0,48.0,-100.00,SSW,205,6.0,15.0,36,-99.99,,,-99.99,786.000000,,2013-05-13 16:30:00,
2013-05-13 10:52:00,77.0,48.0,-100.00,SSW,205,6.0,15.0,36,-99.99,,,-99.99,786.000000,,2013-05-13 16:52:00,
2013-05-13 11:02:00,77.0,48.0,-100.00,SSW,205,6.0,15.0,36,-99.99,,,-99.99,786.000000,,2013-05-13 17:02:00,
2013-05-13 11:12:00,77.0,48.0,-100.00,SSW,205,6.0,15.0,36,-99.99,,,-99.99,786.000000,,2013-05-13 17:12:00,
2013-05-13 11:21:00,77.0,48.0,-100.00,SSW,205,6.0,15.0,36,-99.99,,,-99.99,786.000000,,2013-05-13 17:21:00,
2013-05-13 11:30:00,79.0,48.0,-100.00,South,186,7.0,17.0,34,0.00,,,-99.99,893.000000,,2013-05-13 17:30:00,
2013-05-13 11:54:00,79.0,48.0,-100.00,South,186,7.0,17.0,34,0.00,,,-99.99,893.000000,,2013-05-13 17:54:00,
2013-05-13 12:03:00,79.0,48.0,-100.00,South,186,7.0,17.0,34,0.00,,,-99.99,893.000000,,2013-05-13 18:03:00,
2013-05-13 12:12:00,79.0,48.0,-100.00,South,186,7.0,17.0,34,0.00,,,-99.99,893.000000,,2013-05-13 18:12:00,
2013-05-13 12:23:00,79.0,48.0,-100.00,South,186,7.0,17.0,34,0.00,,,-99.99,893.000000,,2013-05-13 18:23:00,
2013-05-13 12:30:00,80.0,47.0,-100.00,WSW,257,9.0,17.0,31,0.00,,,-99.99,1034.000000,,2013-05-13 18:30:00,
2013-05-13 12:52:00,80.0,47.0,-100.00,WSW,257,9.0,17.0,31,0.00,,,-99.99,1034.000000,,2013-05-13 18:52:00,
2013-05-13 13:01:00,80.0,47.0,-100.00,WSW,257,9.0,17.0,31,0.00,,,-99.99,1034.000000,,2013-05-13 19:01:00,
2013-05-13 13:11:00,80.0,47.0,-100.00,WSW,257,9.0,17.0,31,0.00,,,-99.99,1034.000000,,2013-05-13 19:11:00,
2013-05-13 13:21:00,80.0,47.0,-100.00,WSW,257,9.0,17.0,31,0.00,,,-99.99,1034.000000,,2013-05-13 19:21:00,
2013-05-13 13:30:00,83.0,47.0,-100.00,WSW,257,10.0,20.0,29,0.00,,,-99.99,1095.000000,,2013-05-13 19:30:00,
2013-05-13 13:53:00,83.0,47.0,-100.00,WSW,257,10.0,20.0,29,0.00,,,-99.99,1095.000000,,2013-05-13 19:53:00,
2013-05-13 14:01:00,83.0,47.0,-100.00,WSW,257,10.0,20.0,29,0.00,,,-99.99,1095.000000,,2013-05-13 20:01:00,
2013-05-13 14:11:00,83.0,47.0,-100.00,WSW,257,10.0,20.0,29,0.00,,,-99.99,1095.000000,,2013-05-13 20:11:00,
2013-05-13 14:23:00,83.0,47.0,-100.00,WSW,257,10.0,20.0,29,0.00,,,-99.99,1095.000000,,2013-05-13 20:23:00,
2013-05-13 14:30:00,83.0,45.0,-100.00,West,280,7.0,19.0,26,0.00,,,-99.99,909.000000,,2013-05-13 20:30:00,
2013-05-13 14:53:00,83.0,45.0,-100.00,West,280,7.0,19.0,26,0.00,,,-99.99,909.000000,,2013-05-13 20:53:00,
2013-05-13 15:02:00,83.0,45.0,-100.00,West,280,7.0,19.0,26,0.00,,,-99.99,909.000000,,2013-05-13 21:02:00,
2013-05-13 15:14:00,83.0,45.0,-100.00,West,280,7.0,19.0,26,0.00,,,-99.99,909.000000,,2013-05-13 21:14:00,
2013-05-13 15:23:00,83.0,45.0,-100.00,West,280,7.0,19.0,26,0.00,,,-99.99,909.000000,,2013-05-13 21:23:00,
2013-05-13 15:30:00,86.0,44.0,-100.00,WNW,302,14.0,28.0,23,0.00,,,-99.99,777.000000,,2013-05-13 21:30:00,
2013-05-13 15:53:00,86.0,44.0,-100.00,WNW,302,14.0,28.0,23,0.00,,,-99.99,777.000000,,2013-05-13 21:53:00,
2013-05-13 16:02:00,86.0,44.0,-100.00,WNW,302,14.0,28.0,23,0.00,,,-99.99,777.000000,,2013-05-13 22:02:00,
2013-05-13 16:12:00,86.0,44.0,-100.00,WNW,302,14.0,28.0,23,0.00,,,-99.99,777.000000,,2013-05-13 22:12:00,
2013-05-13 16:22:00,86.0,44.0,-100.00,WNW,302,14.0,28.0,23,0.00,,,-99.99,777.000000,,2013-05-13 22:22:00,
2013-05-13 16:30:00,86.0,39.0,-100.00,West,259,16.0,29.0,19,0.00,,,-99.99,965.000000,,2013-05-13 22:30:00,
2013-05-13 16:52:00,86.0,39.0,-100.00,West,259,16.0,29.0,19,0.00,,,-99.99,965.000000,,2013-05-13 22:52:00,
2013-05-13 17:01:00,86.0,39.0,-100.00,West,259,16.0,29.0,19,0.00,,,-99.99,965.000000,,2013-05-13 23:01:00,
2013-05-13 17:12:00,86.0,39.0,-100.00,West,259,16.0,29.0,19,0.00,,,-99.99,965.000000,,2013-05-13 23:12:00,
2013-05-13 17:23:00,86.0,39.0,-100.00,West,259,16.0,29.0,19,0.00,,,-99.99,965.000000,,2013-05-13 23:23:00,
2013-05-13 17:30:00,87.0,41.0,-100.00,West,259,10.0,20.0,20,0.00,,,-99.99,540.000000,,2013-05-13 23:30:00,
2013-05-13 17:54:00,87.0,41.0,-100.00,West,259,10.0,20.0,20,0.00,,,-99.99,540.000000,,2013-05-13 23:54:00,
2013-05-13 18:02:00,87.0,41.0,-100.00,West,259,10.0,20.0,20,0.00,,,-99.99,540.000000,,2013-05-14 00:02:00,
2013-05-13 18:12:00,87.0,41.0,-100.00,West,259,10.0,20.0,20,0.00,,,-99.99,540.000000,,2013-05-14 00:12:00,
2013-05-13 18:22:00,87.0,41.0,-100.00,West,259,10.0,20.0,20,0.00,,,-99.99,540.000000,,2013-05-14 00:22:00,
2013-05-13 18:30:00,81.0,39.0,-100.00,NNW,329,7.0,20.0,22,0.00,,,-99.99,287.000000,,2013-05-14 00:30:00,
2013-05-13 18:52:00,81.0,39.0,-100.00,NNW,329,7.0,20.0,22,0.00,,,-99.99,287.000000,,2013-05-14 00:52:00,
2013-05-13 19:01:00,81.0,39.0,-100.00,NNW,329,7.0,20.0,22,0.00,,,-99.99,287.000000,,2013-05-14 01:01:00,
2013-05-13 19:11:00,81.0,39.0,-100.00,NNW,329,7.0,20.0,22,0.00,,,-99.99,287.000000,,2013-05-14 01:11:00,
2013-05-13 19:21:00,81.0,39.0,-100.00,NNW,329,7.0,20.0,22,0.00,,,-99.99,287.000000,,2013-05-14 01:21:00,
2013-05-13 19:30:00,74.0,38.0,-100.00,NW,319,13.0,30.0,27,0.00,,,-99.99,142.000000,,2013-05-14 01:30:00,
2013-05-13 19:53:00,74.0,38.0,-100.00,NW,319,13.0,30.0,27,0.00,,,-99.99,142.000000,,2013-05-14 01:53:00,
2013-05-13 20:02:00,74.0,38.0,-100.00,NW,319,13.0,30.0,27,0.00,,,-99.99,142.000000,,2013-05-14 02:02:00,
2013-05-13 20:11:00,74.0,38.0,-100.00,NW,319,13.0,30.0,27,0.00,,,-99.99,142.000000,,2013-05-14 02:11:00,
2013-05-13 20:21:00,74.0,38.0,-100.00,NW,319,13.0,30.0,27,0.00,,,-99.99,142.000000,,2013-05-14 02:21:00,
2013-05-13 20:30:00,71.0,40.0,-100.00,WNW,285,6.0,21.0,33,0.00,,,-99.99,114.000000,,2013-05-14 02:30:00,
2013-05-13 20:52:00,71.0,40.0,-100.00,WNW,285,6.0,21.0,33,0.00,,,-99.99,114.000000,,2013-05-14 02:52:00,
2013-05-13 21:01:00,71.0,40.0,-100.00,WNW,285,6.0,21.0,33,0.00,,,-99.99,114.000000,,2013-05-14 03:01:00,
2013-05-13 21:11:00,71.0,40.0,-100.00,WNW,285,6.0,21.0,33,0.00,,,-99.99,114.000000,,2013-05-14 03:11:00,
2013-05-13 21:21:00,71.0,40.0,-100.00,WNW,285,6.0,21.0,33,0.00,,,-99.99,114.000000,,2013-05-14 03:21:00,
2013-05-13 21:30:00,70.0,41.0,-100.00,SW,236,13.0,30.0,35,0.00,,,-99.99,2.000000,,2013-05-14 03:30:00,
2013-05-13 21:53:00,70.0,41.0,-100.00,SW,236,13.0,30.0,35,0.00,,,-99.99,2.000000,,2013-05-14 03:53:00,
2013-05-13 22:02:00,70.0,41.0,-100.00,SW,236,13.0,30.0,35,0.00,,,-99.99,2.000000,,2013-05-14 04:02:00,
2013-05-13 22:13:00,70.0,41.0,-100.00,SW,236,13.0,30.0,35,0.00,,,-99.99,2.000000,,2013-05-14 04:13:00,
2013-05-13 22:22:00,70.0,41.0,-100.00,SW,236,13.0,30.0,35,0.00,,,-99.99,2.000000,,2013-05-14 04:22:00,
2013-05-13 22:30:00,62.0,44.0,-100.00,West,260,9.0,49.0,52,0.00,,,-99.99,0.000000,,2013-05-14 04:30:00,
2013-05-13 22:53:00,62.0,44.0,-100.00,West,260,9.0,49.0,52,0.00,,,-99.99,0.000000,,2013-05-14 04:53:00,
2013-05-13 23:01:00,62.0,44.0,-100.00,West,260,9.0,49.0,52,0.00,,,-99.99,0.000000,,2013-05-14 05:01:00,
2013-05-13 23:12:00,62.0,44.0,-100.00,West,260,9.0,49.0,52,0.00,,,-99.99,0.000000,,2013-05-14 05:12:00,
2013-05-13 23:21:00,62.0,44.0,-100.00,West,260,9.0,49.0,52,0.00,,,-99.99,0.000000,,2013-05-14 05:21:00,
2013-05-13 23:30:00,60.0,40.0,-100.00,WSW,248,12.0,22.0,47,0.00,,,-99.99,0.000000,,2013-05-14 05:30:00,
2013-05-13 23:52:00,60.0,40.0,-100.00,WSW,248,12.0,22.0,47,0.00,,,-99.99,0.000000,,2013-05-14 05:52:00,